Flag for Canada Weather past 2 weeks in Port Coquitlam, British Columbia, Canada

Now
76 °F

Mild.


Feels Like: 78 °F
Forecast: 59 / 87 °F
Wind: 1 mph from Southeast

Location: P. Meadows Coastal Station

Current Time: Aug 2, 2015 at 11:59:43 AM

Latest Report: Aug 2, 2015 at 11:00 AM


Visibility: N/A

Pressure: 29.93 "Hg

Humidity: 53%

Dew point: 58 °F

Location of Port CoquitlamLocation

Historic Weather in Port Coquitlam — Graph

°F

Port Coquitlam temperature yesterday

Maximum temperature yesterday: 89 °F (at 5:00 PM)
Minimum temperature yesterday: 56 °F (at 6:00 AM)
Average temperature yesterday: 73 °F

Past Weeks' High & Low Weather Summary

 TemperatureHumidityPressure
High91 °F (Jul 18, 5:00 PM)98% (Jul 30, 5:00 AM)30.29 "Hg (Jul 30, 5:00 AM)
Low53 °F (Jul 23, 5:00 AM)20% (Jul 29, 5:00 PM)29.86 "Hg (Jul 22, 8:00 PM)
Average68 °F66%30.03 "Hg
* Reported Jul 18 10:00 AM — Aug 2 10:00 AM, Port Coquitlam, Weather by CustomWeather, © 2015

Note: Actual official high and low records may vary slightly from our data, if they occured in-between our weather recording intervals... More about our weather records

Advertising

Port Coquitlam weather history for previous 24 hours

 ConditionsComfort  
Time TempWeatherWind HumidityBarometerVisibility
10:00 AM
Sun, Aug 2
74 °FMild.2 mph61%29.95 "HgN/A
9:00 AM70 °FMild.1 mph66%29.95 "HgN/A
8:00 AM65 °FMild.1 mph79%29.95 "HgN/A
7:00 AM60 °FCool.1 mph89%29.94 "HgN/A
6:00 AM60 °FCool.2 mph86%29.93 "HgN/A
5:00 AM60 °FCool.No wind85%29.92 "HgN/A
4:00 AM63 °FMild.2 mph83%29.91 "HgN/A
3:00 AM62 °FMild.1 mph85%29.91 "HgN/A
2:00 AM62 °FCool.No wind85%29.91 "HgN/A
1:00 AM66 °FMild.1 mph78%29.91 "HgN/A
12:00 AM67 °FMild.2 mph77%29.91 "HgN/A
11:00 PM
Sat, Aug 1
68 °FMild.1 mph72%29.91 "HgN/A
10:00 PM71 °FMild.1 mph68%29.91 "HgN/A
9:00 PM72 °FMild.1 mph66%29.91 "HgN/A
8:00 PM80 °FPleasantly warm.3 mph39%29.90 "HgN/A
7:00 PM85 °FPleasantly warm.8 mph26%29.90 "HgN/A
6:00 PM86 °FPleasantly warm.5 mph38%29.91 "HgN/A
5:00 PM89 °FHot.6 mph26%29.92 "HgN/A
4:00 PM88 °FPleasantly warm.7 mph30%29.93 "HgN/A
3:00 PM87 °FPleasantly warm.3 mph34%29.95 "HgN/A
2:00 PM85 °FPleasantly warm.3 mph35%29.96 "HgN/A
1:00 PM83 °FPleasantly warm.2 mph38%29.98 "HgN/A
12:00 PM80 °FWarm.3 mph46%30.00 "HgN/A
11:00 AM77 °FMild.2 mph47%30.01 "HgN/A
Weather by CustomWeather, © 2015

See weather overviewHow to use our weather pages